FW8528 Weather Reports


Display with metric or nautical units.
time (UTC)temp
F
wind
direction
speed
MPH
gust
MPH
rain 1hr
in
rain 24hr
in
rain mn
in
humidity
%
barometer
mb
20260902055310 60 247 1.0 1.0 0.00 0.00 0.00 85 1009.6
20260902054810 60 238 1.0 1.0 0.00 0.00 0.00 84 1009.6
20260902054305 60 299 0.0 1.0 0.00 0.00 0.00 84 1009.6
20260902053800 60 265 1.0 2.0 0.00 0.00 0.00 85 1009.6
20260902053255 60 291 0.0 0.0 0.00 0.00 0.00 84 1009.6
20260902052754 60 236 0.0 1.0 0.00 0.00 0.00 84 1009.6
20260902052249 60 260 0.0 1.0 0.00 0.00 0.00 86 1009.6
20260902051744 60 26 3.0 5.0 0.00 0.00 0.00 85 1009.6
20260902051238 59 289 0.0 1.0 0.00 0.00 0.00 86 1009.6
20260902050733 59 27 1.0 1.0 0.00 0.00 0.00 88 1009.6
20260902050228 58 278 0.0 0.0 0.00 0.00 0.00 89 1009.6
20260902045728 59 244 0.0 1.0 0.00 0.00 0.00 89 1009.9
20260902045224 59 278 0.0 0.0 0.00 0.00 0.00 87 1009.6
20260902044720 59 271 0.0 0.0 0.00 0.00 0.00 87 1009.6
20260902044215 59 257 0.0 0.0 0.00 0.00 0.00 87 1009.9
20260902043715 58 322 2.0 2.0 0.00 0.00 0.00 89 1009.9
20260902043211 59 284 0.0 0.0 0.00 0.00 0.00 88 1009.9
20260902042710 59 299 1.0 2.0 0.00 0.00 0.00 88 1009.9
20260902042205 59 271 0.0 0.0 0.00 0.00 0.00 87 1009.9
20260902041700 59 259 0.0 0.0 0.00 0.00 0.00 87 1009.9
20260902041155 59 244 0.0 0.0 0.00 0.00 0.00 86 1009.9
20260902040654 59 251 0.0 0.0 0.00 0.00 0.00 86 1009.9
20260902040150 60 232 0.0 0.0 0.00 0.00 0.00 85 1009.6
20260902035648 60 266 0.0 0.0 0.00 0.00 0.00 84 1009.9
20260902035144 60 285 1.0 1.0 0.00 0.00 0.00 84 1009.6
20260902034643 60 288 0.0 0.0 0.00 0.00 0.00 83 1009.6
20260902034143 60 273 0.0 0.0 0.00 0.00 0.00 83 1009.6
20260902033642 60 309 1.0 2.0 0.00 0.00 0.00 83 1009.6
20260902033137 60 270 0.0 0.0 0.00 0.00 0.00 82 1009.6
20260902032636 61 4 3.0 3.0 0.00 0.00 0.00 81 1009.6
20260902032135 61 312 1.0 1.0 0.00 0.00 0.00 81 1009.6
20260902031630 61 269 2.0 2.0 0.00 0.00 0.00 81 1009.2
20260902031126 60 114 1.0 2.0 0.00 0.00 0.00 81 1009.2
20260902030621 60 67 0.0 0.0 0.00 0.00 0.00 81 1009.2
20260902030120 61 60 1.0 2.0 0.00 0.00 0.00 81 1009.2
20260902025615 61 255 0.0 1.0 0.00 0.00 0.00 81 1009.2
20260902025110 61 229 1.0 1.0 0.00 0.00 0.00 80 1009.2
20260902024606 61 293 0.0 1.0 0.00 0.00 0.00 80 1009.2
20260902024100 62 114 3.0 3.0 0.00 0.00 0.00 80 1009.2
20260902023556 62 233 0.0 0.0 0.00 0.00 0.00 79 1009.6
20260902023051 62 138 0.0 2.0 0.00 0.00 0.00 79 1009.6
20260902022550 62 261 0.0 0.0 0.00 0.00 0.00 80 1009.2
20260902022046 62 226 1.0 1.0 0.00 0.00 0.00 81 1009.2
20260902021541 62 231 0.0 1.0 0.00 0.00 0.00 80 1009.2
20260902021036 62 64 2.0 3.0 0.00 0.00 0.00 80 1009.6
20260902020532 62 250 0.0 0.0 0.00 0.00 0.00 82 1009.2
20260902020028 63 238 0.0 0.0 0.00 0.00 0.00 78 1009.6
20260902015524 62 207 1.0 1.0 0.00 0.00 0.00 80 1009.2
20260902015019 62 256 0.0 0.0 0.00 0.00 0.00 79 1009.6
20260902014515 63 263 0.0 0.0 0.00 0.00 0.00 78 1009.6
20260902014010 63 352 1.0 2.0 0.00 0.00 0.00 77 1009.2
20260902013505 63 327 1.0 2.0 0.00 0.00 0.00 77 1009.2
20260902013000 63 2 1.0 1.0 0.00 0.00 0.00 77 1009.2
20260902012455 64 233 1.0 1.0 0.00 0.00 0.00 78 1009.6
20260902011951 64 336 2.0 2.0 0.00 0.00 0.00 76 1008.9
20260902011446 64 303 1.0 1.0 0.00 0.00 0.00 75 1009.2
20260902010946 64 272 0.0 0.0 0.00 0.00 0.00 75 1008.9
20260902010441 65 90 1.0 1.0 0.00 0.00 0.00 75 1009.2
20260902005940 64 55 1.0 1.0 0.00 0.00 0.00 75 1009.2
20260902005439 64 219 1.0 1.0 0.00 0.00 0.00 77 1008.9
20260902004936 64 281 0.0 0.0 0.00 0.00 0.00 77 1008.9
20260902004435 64 331 1.0 1.0 0.00 0.00 0.00 77 1009.2
20260902003931 64 264 2.0 3.0 0.00 0.00 0.00 78 1009.2
20260902003430 65 267 2.0 2.0 0.00 0.00 0.00 77 1008.9
20260902002926 64 247 0.0 0.0 0.00 0.00 0.00 77 1009.2
20260902002421 65 320 1.0 1.0 0.00 0.00 0.00 76 1008.9
20260902001920 65 276 0.0 1.0 0.00 0.00 0.00 75 1009.2
20260902001415 66 280 1.0 1.0 0.00 0.00 0.00 74 1009.2
20260902000911 67 13 4.0 5.0 0.00 0.00 0.00 72 1009.2
20260902000407 67 265 0.0 0.0 0.00 0.00 0.00 71 1009.2
20260901235901 67 289 1.0 1.0 0.00 0.00 0.00 72 1009.2
20260901235401 66 265 1.0 2.0 0.00 0.00 0.00 73 1009.2
20260901234856 66 249 0.0 0.0 0.00 0.00 0.00 74 1009.2
20260901234349 66 297 0.0 1.0 0.00 0.00 0.00 74 1009.2
20260901233845 66 279 1.0 1.0 0.00 0.00 0.00 74 1009.6
20260901233340 67 238 0.0 0.0 0.00 0.00 0.00 73 1009.2
20260901232836 67 318 2.0 2.0 0.00 0.00 0.00 72 1009.2
20260901232331 69 60 4.0 5.0 0.00 0.00 0.00 69 1009.2
20260901231827 70 94 3.0 5.0 0.00 0.00 0.00 67 1009.2
20260901231323 70 268 0.0 1.0 0.00 0.00 0.00 66 1008.9
20260901230819 72 227 1.0 1.0 0.00 0.00 0.00 63 1008.9
20260901230319 72 29 4.0 7.0 0.00 0.00 0.00 62 1008.9
20260901225814 71 311 3.0 7.0 0.00 0.00 0.00 65 1008.9
20260901225314 71 311 1.0 1.0 0.00 0.00 0.00 65 1008.9
20260901224809 71 103 3.0 5.0 0.00 0.00 0.00 65 1008.9
20260901224305 71 64 1.0 1.0 0.00 0.00 0.00 66 1008.9
20260901223801 71 200 1.0 1.0 0.00 0.00 0.00 64 1008.6
20260901223256 72 351 1.0 2.0 0.00 0.00 0.00 62 1008.6
20260901222752 72 288 2.0 2.0 0.00 0.00 0.00 63 1008.9
20260901222248 73 268 1.0 1.0 0.00 0.00 0.00 60 1008.9
20260901221744 74 209 1.0 2.0 0.00 0.00 0.00 58 1008.6
20260901221239 73 298 1.0 2.0 0.00 0.00 0.00 59 1008.9
20260901220738 71 200 2.0 2.0 0.00 0.00 0.00 59 1008.6
20260901220233 74 342 7.0 9.0 0.00 0.00 0.00 57 1008.9
20260901215731 73 87 1.0 2.0 0.00 0.00 0.00 61 1008.9
20260901215226 71 309 1.0 1.0 0.00 0.00 0.00 62 1008.9
20260901214724 70 219 1.0 1.0 0.00 0.00 0.00 64 1008.6
20260901214218 70 305 2.0 2.0 0.00 0.00 0.00 64 1008.9
20260901213718 71 293 3.0 5.0 0.00 0.00 0.00 64 1008.9
20260901213213 72 106 1.0 1.0 0.00 0.00 0.00 64 1008.9
20260901212712 70 266 2.0 3.0 0.00 0.00 0.00 65 1008.9
20260901212208 70 241 1.0 2.0 0.00 0.00 0.00 66 1008.9
20260901211708 69 0 2.0 2.0 0.00 0.00 0.00 67 1008.9
20260901211205 69 10 2.0 2.0 0.00 0.00 0.00 69 1008.9
20260901210700 72 340 1.0 2.0 0.00 0.00 0.00 65 1008.9
20260901210156 73 302 1.0 2.0 0.00 0.00 0.00 63 1008.9
20260901205652 70 268 1.0 1.0 0.00 0.00 0.00 67 1008.9
20260901205152 70 323 4.0 5.0 0.00 0.00 0.00 67 1009.2
20260901204648 70 243 0.0 0.0 0.00 0.00 0.00 69 1009.2
20260901204143 70 118 2.0 5.0 0.00 0.00 0.00 67 1009.2
20260901203643 70 253 0.0 1.0 0.00 0.00 0.00 69 1009.2
20260901203138 69 294 1.0 2.0 0.00 0.00 0.00 70 1009.2
20260901202637 69 276 1.0 1.0 0.00 0.00 0.00 70 1009.2
20260901202133 69 57 3.0 5.0 0.00 0.00 0.00 72 1009.2
20260901201629 68 63 3.0 6.0 0.00 0.00 0.00 72 1009.2
20260901201128 69 338 1.0 1.0 0.00 0.00 0.00 71 1009.6
20260901200627 71 23 3.0 3.0 0.00 0.00 0.00 70 1009.2
20260901200123 70 144 2.0 3.0 0.00 0.00 0.00 70 1008.9
20260901195621 71 70 1.0 1.0 0.00 0.00 0.00 69 1009.6
20260901195120 70 355 3.0 5.0 0.00 0.00 0.00 70 1009.2
20260901194616 71 286 1.0 1.0 0.00 0.00 0.00 69 1009.2
20260901194111 71 22 1.0 2.0 0.00 0.00 0.00 70 1008.9
20260901193607 70 346 1.0 1.0 0.00 0.00 0.00 70 1009.2
20260901193101 69 293 1.0 1.0 0.00 0.00 0.00 71 1009.2
20260901192556 70 303 0.0 1.0 0.00 0.00 0.00 70 1009.2
20260901192051 69 246 0.0 0.0 0.00 0.00 0.00 70 1009.2
20260901191547 69 58 1.0 1.0 0.00 0.00 0.00 71 1009.2
20260901191044 70 255 2.0 3.0 0.00 0.00 0.00 70 1009.2
20260901190539 69 144 2.0 2.0 0.00 0.00 0.00 71 1009.6
20260901190038 68 270 1.0 1.0 0.00 0.00 0.00 74 1009.6
20260901185536 68 278 1.0 1.0 0.00 0.00 0.00 74 1009.6
20260901185036 68 244 1.0 2.0 0.00 0.00 0.00 73 1009.6
20260901184531 66 134 1.0 2.0 0.00 0.00 0.00 76 1009.6
20260901184027 67 46 1.0 1.0 0.00 0.00 0.00 77 1009.6
20260901183521 67 300 0.0 1.0 0.00 0.00 0.00 76 1009.6
20260901183016 66 300 0.0 1.0 0.00 0.00 0.00 77 1009.6
20260901182513 66 183 1.0 1.0 0.00 0.00 0.00 79 1009.2
20260901182007 65 2 2.0 3.0 0.00 0.00 0.00 78 1009.6
20260901181507 65 167 2.0 3.0 0.00 0.00 0.00 79 1009.6
20260901181006 65 288 3.0 5.0 0.00 0.00 0.00 79 1009.6
20260901180505 66 184 0.0 0.0 0.00 0.00 0.00 79 1009.6
20260901180004 64 241 0.0 0.0 0.00 0.00 0.00 81 1009.6
20260901175458 64 6 2.0 2.0 0.00 0.00 0.00 80 1009.6
20260901174953 65 238 0.0 1.0 0.00 0.00 0.00 80 1009.6
20260901174449 64 358 1.0 1.0 0.00 0.00 0.00 81 1009.6
20260901173944 64 298 3.0 3.0 0.00 0.00 0.00 81 1009.6
20260901173440 64 20 3.0 3.0 0.00 0.00 0.00 81 1009.6
20260901172936 64 215 0.0 1.0 0.00 0.00 0.00 83 1009.2
20260901172431 64 205 1.0 1.0 0.00 0.00 0.00 83 1009.6
20260901171929 64 270 0.0 1.0 0.00 0.00 0.00 83 1009.2
20260901171427 63 270 0.0 1.0 0.00 0.00 0.00 84 1009.6
20260901170927 64 241 2.0 2.0 0.00 0.00 0.00 84 1009.2
20260901170422 63 203 0.0 1.0 0.00 0.00 0.00 85 1009.2
20260901165921 63 150 1.0 2.0 0.00 0.00 0.00 87 1009.2
20260901165416 63 219 1.0 2.0 0.00 0.00 0.00 87 1008.9
20260901164912 62 168 1.0 1.0 0.00 0.00 0.00 89 1009.2
20260901164412 61 172 1.0 2.0 0.00 0.00 0.00 89 1009.2
20260901163907 62 253 0.0 0.0 0.00 0.00 0.00 89 1009.2
20260901163402 61 270 0.0 0.0 0.00 0.00 0.00 91 1009.2
20260901162857 60 242 0.0 0.0 0.00 0.00 0.00 92 1009.2
20260901162355 60 268 0.0 0.0 0.00 0.00 0.00 93 1009.2
20260901161850 59 213 0.0 0.0 0.00 0.00 0.00 95 1009.2
20260901161350 59 187 1.0 1.0 0.00 0.00 0.00 95 1009.2
20260901160845 58 206 0.0 1.0 0.00 0.00 0.00 96 1009.6
20260901160341 59 164 2.0 2.0 0.00 0.00 0.00 95 1009.2
20260901155840 59 190 2.0 2.0 0.00 0.00 0.00 96 1009.2
20260901155335 58 261 1.0 1.0 0.00 0.00 0.00 97 1009.6
20260901154832 58 252 0.0 0.0 0.00 0.00 0.00 98 1009.6
20260901154330 57 151 2.0 2.0 0.00 0.00 0.00 99 1009.6
20260901153825 57 202 2.0 2.0 0.00 0.00 0.00 99 1009.6
20260901153320 57 244 0.0 0.0 0.00 0.00 0.00 99 1009.6
20260901152819 57 227 0.0 0.0 0.00 0.00 0.00 99 1009.6
20260901152318 57 227 0.0 0.0 0.00 0.00 0.00 99 1009.6
20260901151814 57 168 1.0 2.0 0.00 0.00 0.00 99 1009.6
20260901151308 57 198 1.0 1.0 0.00 0.00 0.00 99 1009.6
20260901150808 56 225 0.0 0.0 0.00 0.00 0.00 99 1009.6
20260901150306 56 228 0.0 0.0 0.00 0.00 0.00 99 1009.2
20260901145803 56 228 0.0 0.0 0.00 0.00 0.00 99 1009.6
20260901145257 56 210 1.0 1.0 0.00 0.00 0.00 99 1009.6
20260901144753 56 243 0.0 0.0 0.00 0.00 0.00 99 1009.2
20260901144248 56 244 0.0 0.0 0.00 0.00 0.00 99 1009.2
20260901143744 56 244 0.0 0.0 0.00 0.00 0.00 99 1009.6
20260901143240 55 244 0.0 0.0 0.00 0.00 0.00 99 1009.6
20260901142736 55 245 0.0 0.0 0.00 0.00 0.00 99 1009.2
20260901142235 55 246 0.0 0.0 0.00 0.00 0.00 99 1009.2
20260901141731 55 245 0.0 0.0 0.00 0.00 0.00 99 1009.2
20260901141231 55 246 0.0 0.0 0.00 0.00 0.00 99 1009.6
20260901140730 55 236 0.0 0.0 0.00 0.00 0.00 99 1009.6
20260901140228 55 231 1.0 1.0 0.00 0.00 0.00 99 1009.6
20260901135723 55 233 0.0 0.0 0.00 0.00 0.00 99 1009.6
20260901135218 55 233 0.0 0.0 0.00 0.00 0.00 99 1009.2
20260901134714 55 226 0.0 0.0 0.00 0.00 0.00 99 1009.2
20260901134209 55 238 0.0 0.0 0.00 0.00 0.00 99 1009.2
20260901133708 55 238 0.0 0.0 0.00 0.00 0.00 99 1009.2
20260901133207 55 244 0.0 0.0 0.00 0.00 0.00 99 1009.2
20260901132706 54 243 0.0 0.0 0.00 0.00 0.00 99 1009.2
20260901132206 54 218 0.0 0.0 0.00 0.00 0.00 99 1009.6
20260901131701 54 231 0.0 0.0 0.00 0.00 0.00 99 1009.6
20260901131200 54 231 0.0 0.0 0.00 0.00 0.00 99 1009.2
20260901130656 54 233 0.0 0.0 0.00 0.00 0.00 99 1009.2
20260901130154 54 233 0.0 0.0 0.00 0.00 0.00 99 1009.2
20260901125653 54 239 0.0 0.0 0.00 0.00 0.00 99 1008.9
20260901125148 54 242 0.0 0.0 0.00 0.00 0.00 99 1009.6
20260901124643 54 213 1.0 2.0 0.00 0.00 0.00 99 1008.9
20260901124143 54 232 0.0 0.0 0.00 0.00 0.00 99 1009.2
20260901123637 54 220 0.0 1.0 0.00 0.00 0.00 99 1008.9
20260901123137 53 227 0.0 0.0 0.00 0.00 0.00 99 1008.9
20260901122636 53 229 0.0 0.0 0.00 0.00 0.00 99 1008.9
20260901122131 53 229 0.0 0.0 0.00 0.00 0.00 99 1008.6
20260901121626 53 231 0.0 0.0 0.00 0.00 0.00 99 1008.6
20260901121121 53 213 1.0 1.0 0.00 0.00 0.00 99 1008.9
20260901120621 52 224 0.0 0.0 0.00 0.00 0.00 99 1009.2
20260901120115 51 244 0.0 0.0 0.00 0.00 0.00 99 1008.9
20260901115610 51 215 1.0 1.0 0.00 0.00 0.00 99 1008.9
20260901115108 51 227 0.0 0.0 0.00 0.00 0.00 99 1008.9
20260901114604 51 227 0.0 0.0 0.00 0.00 0.00 99 1008.6
20260901114103 51 229 0.0 0.0 0.00 0.00 0.00 99 1008.9
20260901113602 51 229 0.0 0.0 0.00 0.00 0.00 99 1008.9
20260901113057 51 229 0.0 0.0 0.00 0.00 0.00 99 1008.9
20260901112557 51 231 0.0 0.0 0.00 0.00 0.00 99 1008.6
20260901112052 51 231 0.0 0.0 0.00 0.00 0.00 99 1008.6
20260901111550 51 231 0.0 0.0 0.00 0.00 0.00 99 1008.6
20260901111049 51 231 0.0 0.0 0.00 0.00 0.00 99 1008.6
20260901110545 51 231 0.0 0.0 0.00 0.00 0.00 99 1008.9
20260901110040 51 231 0.0 0.0 0.00 0.00 0.00 99 1008.9
20260901105537 51 231 0.0 0.0 0.00 0.00 0.00 99 1008.9
20260901105036 51 231 0.0 0.0 0.00 0.00 0.00 99 1008.9
20260901104533 51 231 0.0 0.0 0.00 0.00 0.00 99 1008.9
20260901104028 51 231 0.0 0.0 0.00 0.00 0.00 99 1008.9
20260901103522 52 231 0.0 0.0 0.00 0.00 0.00 99 1008.6
20260901103018 51 231 0.0 0.0 0.00 0.00 0.00 99 1008.9
20260901102518 52 231 0.0 0.0 0.00 0.00 0.00 99 1008.9
20260901102012 52 231 0.0 0.0 0.00 0.00 0.00 99 1008.9
20260901101509 52 231 0.0 0.0 0.00 0.00 0.00 99 1008.9
20260901101008 52 231 0.0 0.0 0.00 0.00 0.00 99 1008.9
20260901100502 52 231 0.0 0.0 0.00 0.00 0.00 99 1008.9
20260901100001 52 231 0.0 0.0 0.00 0.00 0.00 99 1008.9
20260901095500 52 231 0.0 0.0 0.00 0.00 0.00 99 1008.9
20260901094958 52 231 0.0 0.0 0.00 0.00 0.00 99 1008.9
20260901094453 52 231 0.0 0.0 0.00 0.00 0.00 99 1008.9
20260901093953 52 231 0.0 0.0 0.00 0.00 0.00 99 1008.9
20260901093447 52 231 0.0 0.0 0.00 0.00 0.00 99 1008.6
20260901092947 52 231 0.0 0.0 0.00 0.00 0.00 99 1008.9
20260901092443 52 231 0.0 0.0 0.00 0.00 0.00 99 1008.6
20260901091939 53 231 0.0 0.0 0.00 0.00 0.00 99 1008.9
20260901091434 53 231 0.0 0.0 0.00 0.00 0.00 99 1008.9
20260901090929 53 231 0.0 0.0 0.00 0.00 0.00 99 1008.9
20260901090428 53 231 0.0 0.0 0.00 0.00 0.00 99 1008.9
20260901085924 53 231 0.0 0.0 0.00 0.00 0.00 99 1008.9
20260901085420 53 231 0.0 0.0 0.00 0.00 0.00 99 1008.6
20260901084916 53 231 0.0 0.0 0.00 0.00 0.00 99 1008.9
20260901084412 53 231 0.0 0.0 0.00 0.00 0.00 99 1008.9
20260901083908 53 231 0.0 0.0 0.00 0.00 0.00 99 1008.9
20260901083402 53 231 0.0 0.0 0.00 0.00 0.00 98 1008.9
20260901082900 53 231 0.0 0.0 0.00 0.00 0.00 98 1008.9
20260901082355 53 231 0.0 0.0 0.00 0.00 0.00 98 1008.9
20260901081850 53 231 0.0 0.0 0.00 0.00 0.00 98 1009.2
20260901081346 53 231 0.0 0.0 0.00 0.00 0.00 98 1009.2
20260901080845 53 231 0.0 0.0 0.00 0.00 0.00 98 1008.9
20260901080340 53 231 0.0 0.0 0.00 0.00 0.00 98 1008.9
20260901075834 54 231 0.0 0.0 0.00 0.00 0.00 98 1008.9
20260901075329 53 231 0.0 0.0 0.00 0.00 0.00 98 1008.9
20260901074824 54 231 0.0 0.0 0.00 0.00 0.00 98 1008.9
20260901074319 54 230 0.0 0.0 0.00 0.00 0.00 98 1008.9
20260901073815 54 231 0.0 0.0 0.00 0.00 0.00 98 1008.6
20260901073310 54 231 0.0 0.0 0.00 0.00 0.00 98 1008.6
20260901072806 54 230 0.0 0.0 0.00 0.00 0.00 98 1008.6
20260901072309 54 231 0.0 0.0 0.00 0.00 0.00 98 1008.6
20260901071801 54 231 0.0 0.0 0.00 0.00 0.00 97 1008.6
20260901071259 54 231 0.0 0.0 0.00 0.00 0.00 97 1008.6
20260901070758 54 231 0.0 0.0 0.00 0.00 0.00 96 1008.6
20260901070254 55 231 0.0 0.0 0.00 0.00 0.00 97 1008.6
20260901065753 55 231 0.0 0.0 0.00 0.00 0.00 97 1008.6
20260901065248 55 231 0.0 0.0 0.00 0.00 0.00 97 1008.6
20260901064744 55 231 0.0 0.0 0.00 0.00 0.00 96 1008.6
20260901064241 55 231 0.0 0.0 0.00 0.00 0.00 96 1008.6
20260901063738 55 230 0.0 0.0 0.00 0.00 0.00 96 1008.6
20260901063233 55 231 0.0 0.0 0.00 0.00 0.00 96 1008.6
20260901062730 55 231 0.0 0.0 0.00 0.00 0.00 95 1008.9
20260901062225 55 230 0.0 0.0 0.00 0.00 0.00 95 1008.6
20260901061721 55 230 0.0 0.0 0.00 0.00 0.00 95 1008.9
20260901061220 55 231 0.0 0.0 0.00 0.00 0.00 94 1008.9
20260901060715 55 230 0.0 0.0 0.00 0.00 0.00 95 1008.9
20260901060211 56 230 0.0 0.0 0.00 0.00 0.00 93 1008.9
20260901055706 56 230 0.0 0.0 0.00 0.00 0.00 93 1008.9